Content
SEND FEEDBACK

Daily
Averages
Monthly
Summary
United States of America

LINCOLN, NORTH DAKOTA


Home > North America > United States > North Dakota
Elevation: 1660 feet     Latitude: 46 46N     Longitude: 100 45W

WEATHER
 
SELECT A DAY
Number of Records: 204,708;   Date Range: 1/1/95 - 8/28/14
 
SHARE

PRINT THIS DATA

[ ← Previous Day ]
WEATHER ALMANAC - FEBRUARY 13, 2013
[ Next Day → ]
[ °C ]   °F
Weather ElementAverageHighLow
Temperature33.3 °F37.9 °F (12:52 pm)30 °F (3:52 am)
Dewpoint29.4 °F33.1 °F (10:52 am)25 °F (1:52 am)
Humidity85.8 %96 % (9:03 am)75 % (2:49 pm)
Barometer29.69 in29.82 in (9:52 pm)29.58 in (10:27 am)
Wind Speed8.4 mph19.6 mph (3:07 pm)
Wind Gust32.2 mph (4:37 pm)
Weather ElementAverage
Visibility7.2 mi
Wind DirectionWSW (253.4 °)

Weather ElementTotal
Precipitation0.09 in
Heating Degree Days31.1 (Base 65)
Averaged from 47 records on February 13, 2013
WEATHER CONDITIONS BREAKOUT
WIND DIRECTION BREAKOUT
WEATHER BY HOUR - FEBRUARY 13, 2013
[ °C ]   °F
Local TimeTemperatureDewpointHumidityBarometerVisibilityWind DirectionWind SpeedGust SpeedPrecipitationEventsConditions
1:52 AM30.9 °F25.0 °F79 %29.81 in10.0 miWSW (250°)8.1 mphMostly Cloudy
2:52 AM30.9 °F26.1 °F82 %29.79 in10.0 miWNW (290°)5.8 mphOvercast
3:52 AM30.0 °F25.0 °F82 %29.77 in10.0 miSW (230°)3.5 mphOvercast
4:52 AM30.0 °F25.0 °F82 %29.73 in10.0 miSSW (210°)4.6 mphScattered Clouds
5:52 AM30.0 °F25.0 °F82 %29.71 in10.0 miCalmOvercast
6:52 AM30.0 °F26.1 °F85 %29.69 in10.0 miCalm0.00 inOvercast
7:35 AM30.0 °F27.0 °F88 %29.63 in4.0 miSouth (170°)3.5 mph0.00 inSnowLight Snow
7:52 AM30.0 °F27.0 °F88 %29.68 in2.5 miSSE (150°)4.6 mph0.00 inSnowLight Snow
7:57 AM30.0 °F27.0 °F88 %29.62 in3.0 miSSE (160°)3.5 mph0.00 inSnowLight Snow
8:52 AM30.0 °F28.0 °F92 %29.67 in2.5 miCalm0.00 inSnowLight Snow
9:03 AM30.0 °F28.9 °F96 %29.60 in1.5 miCalm0.00 inSnowLight Snow
9:17 AM30.9 °F28.9 °F92 %29.60 in1.8 miSouth (170°)3.5 mph0.01 inSnowLight Snow
9:25 AM30.9 °F28.9 °F92 %29.59 in2.0 miSSW (210°)3.5 mph0.01 inSnowLight Snow
9:34 AM30.9 °F28.9 °F92 %29.59 in1.2 miSW (230°)3.5 mph0.01 inSnowLight Snow
9:47 AM32.0 °F30.2 °F93 %29.59 in0.8 miWSW (240°)3.5 mph0.01 inSnowLight Snow
9:52 AM32.0 °F30.0 °F92 %29.65 in0.8 miWSW (240°)3.5 mph0.02 inSnowLight Snow
10:12 AM33.1 °F30.9 °F92 %29.59 in1.2 miWSW (240°)5.8 mph0.01 inSnowLight Snow
10:27 AM33.1 °F32.0 °F96 %29.58 in3.0 miWest (260°)4.6 mph0.01 inSnowLight Snow
10:52 AM35.1 °F33.1 °F92 %29.63 in10.0 miWNW (300°)4.6 mph0.01 inOvercast
11:16 AM36.0 °F32.0 °F86 %29.58 in10.0 miWest (280°)10.4 mphOvercast
11:50 AM35.6 °F32.0 °F87 %29.58 in10.0 miWest (280°)12.7 mphOvercast
11:52 AM36.0 °F32.0 °F86 %29.63 in10.0 miWest (280°)15.0 mphOvercast
12:17 PM36.0 °F32.0 °F86 %29.58 in10.0 miWNW (290°)16.1 mphOvercast
12:52 PM37.9 °F32.0 °F79 %29.63 in10.0 miWNW (290°)18.4 mph24.2 mphOvercast
1:52 PM37.9 °F32.0 °F79 %29.64 in10.0 miNW (310°)18.4 mph25.3 mphOvercast
2:49 PM37.4 °F30.2 °F75 %29.60 in10.0 miNW (310°)18.4 mph28.8 mphMostly Cloudy
2:52 PM37.9 °F30.9 °F76 %29.65 in10.0 miNW (310°)16.1 mph28.8 mphMostly Cloudy
3:07 PM37.9 °F30.9 °F76 %29.61 in10.0 miNW (320°)19.6 mphMostly Cloudy
3:52 PM37.9 °F30.9 °F76 %29.68 in10.0 miNW (320°)15.0 mphOvercast
4:15 PM37.0 °F30.0 °F76 %29.63 in10.0 miNW (320°)17.3 mph25.3 mphOvercast
4:23 PM36.0 °F30.0 °F79 %29.64 in10.0 miNW (320°)13.8 mph26.5 mphOvercast
4:37 PM36.0 °F28.9 °F76 %29.64 in10.0 miNW (310°)17.3 mph32.2 mphOvercast
4:52 PM36.0 °F28.9 °F76 %29.71 in10.0 miNNW (330°)18.4 mph24.2 mphOvercast
5:52 PM34.0 °F28.9 °F82 %29.75 in10.0 miNNW (330°)18.4 mph24.2 mphOvercast
6:52 PM34.0 °F28.9 °F82 %29.78 in10.0 miNNW (330°)13.8 mphOvercast
7:33 PM33.1 °F30.0 °F89 %29.75 in3.0 miNorth (350°)6.9 mph0.00 inSnowLight Snow
7:41 PM33.1 °F30.0 °F89 %29.75 in5.0 miNNW (340°)4.6 mph0.00 inSnowLight Snow
7:52 PM33.1 °F30.0 °F89 %29.81 in7.0 miNNW (330°)5.8 mph0.00 inOvercast
8:13 PM33.1 °F30.0 °F89 %29.76 in8.0 miNNW (330°)8.1 mph0.00 inSnowLight Snow
8:20 PM33.1 °F30.0 °F89 %29.76 in9.0 miNNW (330°)6.9 mph0.00 inSnowLight Snow
8:41 PM33.1 °F30.0 °F89 %29.76 in7.0 miNW (320°)9.2 mph0.00 inSnowLight Snow
8:52 PM33.1 °F30.0 °F89 %29.81 in10.0 miNW (320°)6.9 mph0.00 inOvercast
9:50 PM32.0 °F28.4 °F87 %29.76 in5.0 miWest (280°)4.6 mph0.00 inSnowLight Snow
9:52 PM32.0 °F28.9 °F88 %29.82 in5.0 miWest (280°)5.8 mph0.00 inSnowLight Snow
10:52 PM32.0 °F30.0 °F92 %29.82 in8.0 miWSW (250°)4.6 mph0.00 inOvercast
11:41 PM32.0 °F30.0 °F92 %29.77 in8.0 miWSW (250°)4.6 mph0.00 inOvercast
11:52 PM33.1 °F30.0 °F89 %29.82 in9.0 miWSW (250°)3.5 mph0.00 inOvercast
Hourly data recorded from KBIS, located miles away from Lincoln, North Dakota







STORIES FROM OUR PARTNERS